Location: Carrières
(48.9495°N, 2.0407°E)
Time: 01:56:38
(UTC+00:00)

Transit 2A Rocket - Pass Details

Date: 23 April 2024
Orbit: 585 x 908 km, 66.7° (Epoch: 19 May)

Event Time Altitude Azimuth Distance (km) Brightness Sun altitude
Rises 12:48:19 0° 260° (W) 2,951 8.3 51.9°
Reaches altitude 10° 12:50:58 10° 276° (W) 2,094 7.6 51.7°
Maximum altitude 12:54:42 22° 328° (NNW) 1,505 6.6 51.5°
Drops below altitude 10° 12:58:43 10° 19° (NNE) 2,265 7.2 51.2°
Sets 13:01:43 0° 34° (NE) 3,259 7.9 50.9°
